[[{"header":{"parameterUnit":"m.s-1","parameterCategory":1,"la1":30.2991,"la2":30.254,"lo1":-89.0895,"lo2":-89.0444,"dy":0.0017,"dx":0.0017,"nx":28,"ny":28,"refTime":"2023-09-29T09:00:00:Z","depth":0,"parameterNumber":2,"parameterNumberName":"U-component_of_WINDS"},"data":[0,0,0,0,0,0,0,0,0,0,0,0,0,0,0,0,0,0,0,0,0,0,0,0,0,0,0,0,0,0,0,0,0,0,0,0,0,0,0,0,0,0,0,0,0,0,0,0,0,0,0,0,0,0,0,0,0,0,-3.9382,-3.9383,0,-3.9448,-3.9449,-3.9449,-3.9301,-3.9296,-3.9292,-3.9287,-3.936,-3.9366,-3.9372,0,0,0,0,0,0,0,0,0,0,0,0,0,-3.9133,-3.9138,-3.9382,-3.9383,-3.9384,-3.9448,-3.9449,-3.9449,-3.9302,-3.9296,-3.929,-3.9285,-3.9358,-3.9365,-3.9373,0,0,0,0,0,0,0,0,0,0,0,0,0,-3.9224,-3.914,-3.9382,-3.9318,-3.9312,-3.9447,-3.9449,-3.945,-3.9303,-3.9296,-3.9289,-3.9282,-3.9355,-3.9364,-3.9374,-3.9576,0,0,-3.9403,-3.9407,0,0,0,0,0,0,0,0,-3.9219,-3.9234,-3.9326,-3.9322,-3.9317,-3.9359,-3.9387,-3.9492,-3.9305,-3.9307,-3.9287,-3.9279,-3.9366,-3.9374,-3.9402,-3.9579,-3.9582,-3.9404,-3.941,-3.9414,-3.9416,0,0,0,0,0,0,0,-3.9213,-3.923,-3.9408,-3.9328,-3.9322,-3.9287,-3.9292,-3.9406,-3.9376,-3.9306,-3.9296,-3.9305,-3.9362,-3.9393,-3.9403,-3.9583,-3.9404,-3.9412,-3.9418,-3.9422,-3.993,-3.9938,0,0,0,0,0,0,-3.9214,-3.9226,-3.9406,-3.941,-3.9249,-3.9297,-3.9303,-3.9353,-3.9374,-3.937,-3.9311,-3.9298,-3.938,-3.9392,-3.9405,-3.9643,-3.9414,-3.9423,-3.9428,-3.9923,-3.9932,-3.994,0,0,0,0,0,0,-3.921,-3.9232,-3.9403,-3.9315,-3.9334,-3.9309,-3.9366,-3.9358,-3.9389,-3.9378,-3.9372,-3.9349,-3.9375,-3.9391,-3.9534,-3.9644,-3.9427,-3.9436,-3.9913,-3.9925,-3.9936,-4.0122,0,0,0,0,0,0,-3.9203,-3.9231,-3.9307,-3.9318,-3.9339,-3.9531,-3.9373,-3.9364,-3.9405,-3.9389,-3.9411,-3.9408,-3.9371,-3.9521,-3.9544,-3.9653,-3.9443,-3.9903,-3.9919,-3.9932,-4.0106,-4.0139,-4.0167,0,0,0,0,0,-3.9195,-3.9357,-3.9311,-3.9334,-3.9433,-3.9538,-3.955,-3.9502,-3.9415,-3.9491,-3.9484,-3.9408,-3.9627,-3.9537,-3.9561,-3.9675,-3.9896,-3.9914,-3.9931,-4.0093,-4.0132,-4.0166,0,0,0,0,0,0,-3.9362,-3.9358,-3.9307,-3.9477,-3.9509,-3.9512,-3.9608,-3.9546,-3.9604,-3.9586,-3.9525,-3.9532,-3.9687,-3.9695,-3.9594,-3.9872,-3.9747,-3.9771,-3.9862,-3.9899,-3.9929,-3.9925,-3.9451,0,0,0,0,0,-3.9418,-3.9502,-3.9494,-3.9646,-3.9664,-3.9634,-3.9677,-3.9637,-3.9668,-3.9681,-3.9684,-3.9719,-3.9795,-3.9847,-3.9917,-4.0106,-4.0109,-4.0196,-4.0226,-4.0251,-4.0273,-4.0374,-4.0413,-3.9998,-3.9998,-3.9997,0,0,-3.9537,-3.9544,-3.9602,-3.968,-3.9699,-3.9789,-3.9646,-3.9747,-3.9813,-3.9697,-3.9832,-3.9836,-3.987,-4.0037,-4.0111,-4.0048,-4.0388,-4.0273,-4.0293,-4.0302,-4.0397,-4.0436,-4.0471,-4.001,-4.0007,-4.0006,0,0,-3.9798,-3.9812,-3.994,-3.9962,-3.9993,-3.9971,-4.0002,-4.0015,-4.0013,-4.0146,-4.0061,-4.014,-4.0273,-4.0301,-4.0333,-4.0604,-4.0537,-4.0628,-4.0788,-4.0887,-4.092,-4.0949,-4.1047,-4.1083,-4.065,-4.065,-4.065,0,-3.9942,-4.0072,-4.0014,-4.0121,-4.0159,-4.0055,-4.0185,-4.021,-4.0263,-4.0292,-4.0221,-4.0385,-4.0401,-4.0574,-4.064,-4.0668,-4.0703,-4.0627,-4.0919,-4.0948,-4.0974,-4.1067,-4.1104,-4.0661,-4.066,-4.0659,-4.0658,0,-4.0248,-4.034,-4.044,-4.0492,-4.054,-4.0659,-4.062,-4.0676,-4.0632,-4.0618,-4.0757,-4.0771,-4.0843,-4.088,-4.0838,-4.1048,-4.1008,-4.0929,-4.0803,-4.1026,-4.1112,-4.1148,-4.0677,-4.0673,-4.067,-4.0667,0,0,-4.0619,-4.0636,-4.0674,-4.0697,-4.0723,-4.0793,-4.0907,-4.0975,-4.1025,-4.1065,-4.116,-4.1274,-4.1201,-4.1237,-4.1197,-4.1285,-4.1501,-4.1195,-4.1195,-4.1253,-4.1734,-4.1795,-4.1837,-4.1455,-4.1462,-4.1467,-4.1732,0,-4.0879,-4.1073,-4.1024,-4.1217,-4.1302,-4.1204,-4.1303,-4.1331,-4.1321,-4.1393,-4.1381,-4.1464,-4.1361,-4.1382,-4.1464,-4.1457,-4.1597,-4.1437,-4.1545,-4.155,-4.1542,-4.1882,-4.1947,-4.2196,-4.1765,-4.1771,-4.1775,0,-4.1209,-4.1259,-4.1461,-4.1473,-4.1507,-4.1597,-4.1655,-4.1724,-4.1753,-4.174,-4.178,-4.1723,-4.1837,-4.1708,-4.1865,-4.1757,-4.1798,-4.1802,-4.181,-4.182,-4.1678,-4.1904,-4.2274,-4.2313,-4.1827,-4.1823,-4.1819,0,-4.1462,-4.158,-4.1716,-4.1738,-4.1755,-4.1821,-4.1831,-4.1853,-4.1897,-4.1948,-4.1977,-4.2041,-4.2078,-4.213,-4.2092,-4.2001,-4.2256,-4.2124,-4.225,-4.2252,-4.231,-4.2308,-4.2695,-4.2334,-4.2333,-4.2332,-4.2332,0,-4.1758,-4.1886,-4.183,-4.1914,-4.2054,-4.1997,-4.2138,-4.2137,-4.2157,-4.2241,-4.216,-4.224,-4.2184,-4.226,-4.2231,-4.2367,-4.2383,-4.2377,-4.2369,-4.2386,-4.2387,-4.2414,-4.2396,-4.2342,-4.234,-4.2338,-4.2336,0,-4.2066,-4.2033,-4.2175,-4.2178,-4.2182,-4.2286,-4.2289,-4.2368,-4.2351,-4.2458,-4.2479,-4.2454,-4.2539,-4.2506,-4.2597,-4.2577,-4.2751,-4.2719,-4.2741,-4.2734,-4.2863,-4.2852,-4.3283,-4.3337,-4.2939,-4.2943,-4.2946,0,-4.2258,-4.2354,-4.2367,-4.2416,-4.2432,-4.2512,-4.2556,-4.2503,-4.2552,-4.2593,-4.2667,-4.2745,-4.2804,-4.2945,-4.2936,-4.3006,-4.2975,-4.3121,-4.2986,-4.3,-4.298,-4.2976,-4.2986,-4.315,-4.3154,-4.3158,-4.3161,0,-4.2604,-4.2583,-4.2648,-4.2709,-4.2764,-4.2809,-4.2848,-4.2893,-4.2841,-4.2902,-4.2987,-4.3033,-4.3124,-4.3204,-4.3265,-4.3277,-4.3213,-4.3204,-4.3237,-4.3257,-4.3267,-4.3265,-4.2818,-4.3195,-4.3191,-4.3189,-4.3187,-4.3186,-4.2861,-4.2942,-4.2964,-4.304,-4.3063,-4.3101,-4.3175,-4.3166,-4.3236,-4.3305,-4.327,-4.337,-4.3397,-4.3472,-4.3493,-4.3571,-4.3515,-4.3563,-4.3575,-4.3588,-4.3606,-4.3252,-4.3582,-4.3581,-4.358,-4.3579,-4.3579,0,-4.3205,-4.3213,-4.3284,-4.3339,-4.34,-4.333,-4.3369,-4.3425,-4.3513,-4.3542,-4.3602,-4.3701,-4.3776,-4.3773,-4.3843,-4.3907,-4.3879,-4.3927,-4.3923,-4.3928,-4.3652,-4.3617,-4.3949,-4.3949,-4.3949,-4.3949,-4.3948,-4.3948,-4.3391,-4.3524,-4.3505,-4.3649,-4.3657,-4.3753,-4.3781,-4.3816,-4.3839,-4.3953,-4.4015,-4.401,-4.4028,-4.4098,-4.4166,-4.4162,-4.4193,-4.4254,-4.424,-4.3983,-4.3947,-4.3912,-4.3879,-4.426,-4.4261,-4.4509,-4.4512,-4.4513]},{"header":{"parameterUnit":"m.s-1","parameterCategory":1,"la1":30.2991,"la2":30.254,"lo1":-89.0895,"lo2":-89.0444,"dy":0.0017,"dx":0.0017,"nx":28,"ny":28,"refTime":"2023-09-29T09:00:00:Z","depth":0,"parameterNumber":3,"parameterNumberName":"V-component_of_WINDS"},"data":[0,0,0,0,0,0,0,0,0,0,0,0,0,0,0,0,0,0,0,0,0,0,0,0,0,0,0,0,0,0,0,0,0,0,0,0,0,0,0,0,0,0,0,0,0,0,0,0,0,0,0,0,0,0,0,0,0,0,-3.4272,-3.4273,0,-3.4304,-3.4304,-3.4305,-3.4294,-3.4294,-3.4293,-3.4292,-3.4322,-3.4323,-3.4325,0,0,0,0,0,0,0,0,0,0,0,0,0,-3.4198,-3.42,-3.4272,-3.4273,-3.4273,-3.4304,-3.4304,-3.4305,-3.4294,-3.4293,-3.4293,-3.4292,-3.4321,-3.4323,-3.4325,0,0,0,0,0,0,0,0,0,0,0,0,0,-3.423,-3.42,-3.4272,-3.4272,-3.4272,-3.4304,-3.4304,-3.4305,-3.4294,-3.4293,-3.4292,-3.4291,-3.4321,-3.4323,-3.4325,-3.4359,0,0,-3.4331,-3.4332,0,0,0,0,0,0,0,0,-3.4228,-3.4233,-3.4271,-3.4272,-3.4272,-3.4294,-3.4289,-3.4323,-3.4295,-3.4286,-3.4292,-3.4291,-3.4313,-3.4316,-3.4324,-3.436,-3.4361,-3.4332,-3.4333,-3.4334,-3.4334,0,0,0,0,0,0,0,-3.4226,-3.4231,-3.4285,-3.4272,-3.4272,-3.4268,-3.4272,-3.4295,-3.4305,-3.4286,-3.4286,-3.429,-3.4313,-3.4322,-3.4325,-3.4362,-3.4332,-3.4334,-3.4335,-3.4336,-3.4424,-3.4425,0,0,0,0,0,0,-3.4224,-3.423,-3.4284,-3.4286,-3.4247,-3.427,-3.4274,-3.4288,-3.4305,-3.4306,-3.4291,-3.4289,-3.4319,-3.4322,-3.4326,-3.4364,-3.4334,-3.4336,-3.4337,-3.4423,-3.4424,-3.4426,0,0,0,0,0,0,-3.4223,-3.4229,-3.4282,-3.4257,-3.4264,-3.4273,-3.4288,-3.4289,-3.4298,-3.4308,-3.4309,-3.4298,-3.4318,-3.4323,-3.435,-3.4365,-3.4337,-3.4339,-3.4422,-3.4424,-3.4425,-3.4443,0,0,0,0,0,0,-3.4221,-3.4229,-3.4243,-3.4258,-3.4265,-3.4308,-3.4289,-3.4291,-3.4302,-3.43,-3.4315,-3.4317,-3.4318,-3.4347,-3.4352,-3.4368,-3.434,-3.4421,-3.4423,-3.4425,-3.4441,-3.4445,-3.4449,0,0,0,0,0,-3.4218,-3.4246,-3.4243,-3.425,-3.4283,-3.4309,-3.4313,-3.4314,-3.4303,-3.4317,-3.4322,-3.4316,-3.4363,-3.435,-3.4356,-3.4372,-3.442,-3.4422,-3.4424,-3.444,-3.4445,-3.4449,0,0,0,0,0,0,-3.4232,-3.4248,-3.4245,-3.428,-3.4293,-3.4307,-3.4324,-3.432,-3.4336,-3.4333,-3.4334,-3.4337,-3.4365,-3.4371,-3.4357,-3.4404,-3.4389,-3.4393,-3.4399,-3.4404,-3.4407,-3.4405,-3.4342,0,0,0,0,0,-3.4239,-3.426,-3.4273,-3.4302,-3.4308,-3.4315,-3.4326,-3.4326,-3.4339,-3.4345,-3.4353,-3.4365,-3.4382,-3.4393,-3.441,-3.4442,-3.4444,-3.4456,-3.446,-3.4463,-3.4466,-3.4481,-3.4486,-3.4434,-3.4434,-3.4433,0,0,-3.4254,-3.4266,-3.4278,-3.4305,-3.4315,-3.4334,-3.432,-3.4341,-3.4355,-3.4348,-3.4374,-3.438,-3.4393,-3.4423,-3.4437,-3.4429,-3.4481,-3.4466,-3.4469,-3.447,-3.4484,-3.4489,-3.4494,-3.4435,-3.4435,-3.4435,0,0,-3.4291,-3.4303,-3.4327,-3.4338,-3.4353,-3.4357,-3.4363,-3.4377,-3.4381,-3.4408,-3.4402,-3.4418,-3.4448,-3.4458,-3.4466,-3.4505,-3.4499,-3.451,-3.4529,-3.4544,-3.4548,-3.4552,-3.4564,-3.4569,-3.4513,-3.4513,-3.4513,0,-3.4307,-3.4338,-3.434,-3.4362,-3.4373,-3.4367,-3.4391,-3.44,-3.442,-3.4427,-3.4419,-3.4456,-3.4465,-3.4495,-3.4505,-3.4513,-3.4518,-3.4508,-3.4548,-3.4552,-3.4555,-3.4567,-3.4571,-3.4514,-3.4514,-3.4514,-3.4514,0,-3.4356,-3.4377,-3.4395,-3.4414,-3.4427,-3.445,-3.4454,-3.4467,-3.4465,-3.4469,-3.4495,-3.4506,-3.4523,-3.4531,-3.453,-3.4561,-3.4556,-3.4548,-3.4533,-3.4561,-3.4572,-3.4577,-3.4516,-3.4516,-3.4515,-3.4515,0,0,-3.4403,-3.4423,-3.4429,-3.4437,-3.4454,-3.4469,-3.4491,-3.4509,-3.4518,-3.4532,-3.4549,-3.4574,-3.4566,-3.4576,-3.4576,-3.459,-3.4617,-3.458,-3.458,-3.4585,-3.465,-3.4655,-3.466,-3.4614,-3.4615,-3.4615,-3.4648,0,-3.444,-3.4479,-3.4481,-3.4516,-3.4534,-3.4528,-3.4546,-3.4557,-3.4562,-3.4576,-3.4581,-3.4598,-3.4588,-3.4593,-3.4607,-3.4611,-3.463,-3.4609,-3.4628,-3.4628,-3.4623,-3.4666,-3.4672,-3.4702,-3.4653,-3.4653,-3.4654,0,-3.4489,-3.4504,-3.454,-3.4552,-3.456,-3.4577,-3.4592,-3.4607,-3.4619,-3.4621,-3.4631,-3.4629,-3.4649,-3.4634,-3.4661,-3.4646,-3.4654,-3.4657,-3.4658,-3.4659,-3.4642,-3.4666,-3.4712,-3.4716,-3.4661,-3.466,-3.466,0,-3.4517,-3.4547,-3.4572,-3.4579,-3.4594,-3.4606,-3.4612,-3.4623,-3.4633,-3.4646,-3.4652,-3.4668,-3.4676,-3.4687,-3.4688,-3.4677,-3.4715,-3.47,-3.4715,-3.4715,-3.4723,-3.4722,-3.4769,-3.473,-3.473,-3.473,-3.473,0,-3.4558,-3.458,-3.4585,-3.46,-3.4624,-3.4625,-3.4648,-3.4654,-3.4663,-3.4678,-3.4674,-3.4688,-3.469,-3.4704,-3.4704,-3.4725,-3.473,-3.473,-3.473,-3.473,-3.473,-3.4734,-3.4732,-3.4731,-3.4731,-3.4731,-3.473,0,-3.4593,-3.4598,-3.4624,-3.4636,-3.464,-3.4657,-3.4666,-3.468,-3.4683,-3.4702,-3.4707,-3.4712,-3.4728,-3.473,-3.475,-3.475,-3.4775,-3.4773,-3.4771,-3.477,-3.4785,-3.4783,-3.4835,-3.4841,-3.48,-3.48,-3.4801,0,-3.4618,-3.4635,-3.4648,-3.4658,-3.4666,-3.4682,-3.4692,-3.4693,-3.4704,-3.4718,-3.4729,-3.4745,-3.4758,-3.4784,-3.4788,-3.4802,-3.48,-3.4817,-3.4802,-3.4801,-3.4798,-3.4797,-3.4797,-3.482,-3.482,-3.4821,-3.4821,0,-3.4661,-3.4662,-3.4678,-3.4693,-3.4705,-3.4717,-3.4729,-3.4737,-3.4739,-3.4751,-3.4767,-3.4777,-3.4796,-3.4811,-3.4825,-3.483,-3.4825,-3.4826,-3.483,-3.4829,-3.4827,-3.4827,-3.4777,-3.4824,-3.4824,-3.4824,-3.4824,-3.4824,-3.4691,-3.4705,-3.4716,-3.4733,-3.4741,-3.4752,-3.4765,-3.477,-3.4784,-3.48,-3.4799,-3.4817,-3.4827,-3.4844,-3.4851,-3.4864,-3.4858,-3.4864,-3.4865,-3.4867,-3.4867,-3.4826,-3.4866,-3.4866,-3.4866,-3.4866,-3.4866,0,-3.4733,-3.4739,-3.4755,-3.477,-3.4783,-3.4778,-3.479,-3.48,-3.4816,-3.4826,-3.4838,-3.4856,-3.487,-3.4876,-3.489,-3.4899,-3.4897,-3.4902,-3.4901,-3.4902,-3.4873,-3.4867,-3.4904,-3.4904,-3.4904,-3.4904,-3.4904,-3.4904,-3.4756,-3.4778,-3.478,-3.4807,-3.4813,-3.483,-3.4837,-3.4846,-3.4854,-3.4874,-3.4886,-3.489,-3.4898,-3.4911,-3.4924,-3.4925,-3.493,-3.4936,-3.4936,-3.4908,-3.4904,-3.49,-3.4895,-3.4937,-3.4937,-3.4964,-3.4964,-3.4964]}]]